Weather in Ptichye

Russia / Kurgan Oblast     55°07′13″N   63°24′19″E
temp.,
°C
wind,
m/s
gust,
m/s
humid.,
%
clouds,
%
prec.,
mm/h
press.,
hPa
HPBL,
m
12 may, wed
wed1223:00+15w0033100 0.0 102710
02:00+13sw22370 0.0 102711
05:00+12w334257 0.0 102833
08:00+17w46377 0.0 1027247
11:00+23nw56305 0.0 1027952
14:00+25nnw673427 0.0 10262422
17:00+24nnw68355 0.0 10262307
20:00+20nne354922 0.0 102678
13 may, thu
thu1323:00+16ne335764 0.0 102730
02:00+14ene115916 0.0 102711
05:00+13wsw116185 0.0 102711
08:00+19w3449100 0.0 1027294
11:00+23nw453746 0.0 10261435
14:00+26nw56315 0.0 10251995
17:00+26nnw67295 0.0 10252111
20:00+22nnw33435 0.0 102520
14 may, fri
fri1423:00+19nw11485 0.0 102611
02:00+16e22595 0.0 102614
05:00+15se22688 0.0 102817
08:00+20s23525 0.0 1028280
11:00+25ssw33375 0.0 10271159
14:00+28w34260 0.0 10262625
17:00+29w36265 0.0 10242970
20:00+24nw123999 0.0 102411
15 may, sat
sat1523:00+22sse224023 0.0 102411
02:00+20wsw45467 0.0 102356
05:00+17nw3554100 0.0 102465
08:00+22nw23448 0.0 1024223
11:00+27w343182 0.1 10231118
14:00+29w56265 0.0 10222298
17:00+29w56275 0.0 10212710
20:00+25wnw33393 0.0 102021
16 may, sun
sun1623:00+21w46465 0.0 102093
02:00+19wnw49495 0.0 1021148
05:00+17wnw475641 0.0 1021103
08:00+22nw47455 0.0 1022326
11:00+27wnw56345 0.0 10211103
14:00+30nw562513 0.0 10202090
17:00+30nw45249 0.0 10202245
20:00+25nw11350 0.0 101911